SHIJIAN-17 (SJ-17)

Last updated on Fri Apr 18 2025 00:02:41 GMT+0000 (Coordinated Universal Time)

1 41838U 16065A 25107.57012242 .00000075 00000+0 00000+0 0 9990 2 41838 4.6674 77.7380 0005654 276.9596 238.4968 1.00270076 30960
UTC large
Height (km)
Speed (km/s)
/
Latitude / Longitude
Inclination (degrees)
Orbital Period (minutes)
Azimuth
Elevation
Range (km)
Doppler Factor

Next 0 passes for location: London (51.5072 / 0.1276)

Sorry there are no passes over London.